Regional Weather Roundup
Issued by NWS Charleston, SC

Current Version | Previous Version | Graphics & Text | Print | Product List | Glossary On
Versions: 1 2 3 4 5 6 7 8 9 10 11 12 13 14 15 16 17 18 19 20 21 22 23 24 25 26 27 28 29 30 31 32 33 34 35 36 37 38 39 40 41 42 43 44 45 46 47 48 49 50
000 ASUS42 KCHS 252227 RWRCHS REGIONAL WEATHER ROUNDUP NATIONAL WEATHER SERVICE CHARLESTON SC 600 PM EDT SAT MAR 25 2017 NOTE: "FAIR" INDICATES FEW OR NO CLOUDS BELOW 12,000 FEET WITH NO SIGNIFICANT WEATHER AND/OR OBSTRUCTIONS TO VISIBILITY. NOT ALL STATIONS ARE QUALITY CONTROLLED. USE DATA WITH CAUTION... ESPECIALLY DEWPOINT OBSERVATIONS. SCZ027-030-031-034>040-042>050-252300- ...SOUTHEAST SOUTH CAROLINA... CITY SKY/WX TMP DP RH WIND PRES REMARKS N CHARLESTON CLOUDY 70 54 56 SE13 30.22F WATERFRONT PRK N/A 65 60 84 VRB2 30.22F JOHNS ISLAND FAIR 68 57 68 E7 30.22F PINOPOLIS N/A 72 55 56 S5 30.15F MONCKS CORNER FAIR 68 54 60 SE8 30.22F SUMMERVILLE FAIR 70 54 56 S7 30.22F BEAUFORT MCAS MOSUNNY 73 57 57 SE12 30.21F BEAUFORT ARPT CLOUDY 70 55 60 CALM 30.21F HILTON HEAD IS MOSUNNY 68 59 73 NE5 30.22F WALTERBORO PTCLDY 72 52 49 SE12 30.21F ALLENDALE FAIR 73 52 46 SE13G18 30.16F ...SOUTHERN MIDLANDS AND PEE DEE... CITY SKY/WX TMP DP RH WIND PRES REMARKS GEORGETOWN CLOUDY 70 54 56 S6 30.24F KINGSTREE FAIR 70 50 49 SE10 30.21S ORANGEBURG MOSUNNY 73 51 46 S13 30.18F BARNWELL MOCLDY 77 54 44 SE13 30.16F AIKEN MOCLDY 72 50 46 SE12 30.19S MANNING FAIR 72 52 49 S10 30.20F COLUMBIA PTSUNNY 77 50 38 S6 30.16F SUMTER MOSUNNY 75 50 42 SE13G18 30.16F FLORENCE MOSUNNY 74 50 42 SE10 30.20F MYRTLE BEACH MOSUNNY 70 55 60 S14 30.25F N MYRTLE BEACH MOSUNNY 68 54 60 S8 30.24F $$ GAZ063-065-086>088-099>101-113>116-118-119-134>141-150-252300- ...SOUTHEAST GEORGIA... CITY SKY/WX TMP DP RH WIND PRES REMARKS SAVANNAH ARPT PTSUNNY 73 52 47 SE14 30.19F HUNTER AAF MOSUNNY 73 57 57 SE15 30.17F FORT STEWART MOSUNNY 75 54 49 SE9G21 30.15F STATESBORO CLOUDY 75 55 48 S13 30.16F SYLVANIA CLOUDY N/A N/A N/A SE9 30.18S CLAXTON FAIR 73 55 53 E6 30.16F ...CSRA...CENTRAL AND FAR SOUTHEAST GEORGIA... CITY SKY/WX TMP DP RH WIND PRES REMARKS THOMSON PTSUNNY 76 50 40 W6 30.18S AUGUSTA-BUSH MOSUNNY 78 50 37 SE9 30.14F AUGUSTA-DANIEL MOSUNNY 77 48 35 SE8 30.15F SWAINSBORO MOCLDY 77 52 41 SE14 30.14F VIDALIA CLOUDY 77 54 44 SE12 30.14F EASTMAN FAIR 80 33 18 S8 30.14S HAZLEHURST FAIR 76 56 49 CALM 30.12F ALMA CLOUDY 78 56 46 SE9 30.13F WAYCROSS MOSUNNY 79 61 53 SE12 30.13F JESUP MOCLDY 73 54 49 SE12 30.16F BAXLEY FAIR 77 59 53 SE10G17 30.13F BRUNSWICK SUNNY 73 59 60 SE10 30.19S SAINT SIMONS SUNNY 71 59 65 E10 30.18F $$ SCZ027-028-034-036>038-045-046-048>050-GAZ119-141-252300- ...LAKE AND SUPPLEMENTAL COASTAL OBSERVATIONS... STATION/POSITION TIME TEMP WIND PRES WAVE SWELL AIR SEA DIR/SP/G HT/PER HT/PER/DIR (UTC) (F) (DEG/KT/KT) (MB) (FT/S) (FT/S/D) WINYAH BAY 2130 67 140/ 5 1024.0F LAKE MURRAY 2130 70 160/ 7/ 8 1021.0F ACE BASIN NERRS 2130 72 100/ 4 1023.0F FORT PULASKI 2200 70 62 140/ 7/ 11 1023.2 SAPELO ISLAND 2200 74 120/ 7 1022.0 $$ ANZ835-935-AMZ111-154-330-350-352-354-370-450-454-472-252300- ...C-MAN AND BUOY OBSERVATIONS... STATION/POSITION TIME TEMP WIND PRES WAVE SWELL AIR SEA DIR/SP/G HT/PER HT/PER/DIR (UTC) (F) (DEG/KT/KT) (MB) (FT/S) (FT/S/D) BUOY 41004 2150 70 72 150/ 12/ 14 1023.3F 4/ 8 3/130/ 8 BUOY 41008 2150 66 63 120/ 8/ 8 1022.3F 4/ 8 3/130/ 8 FOLLY BEACH CMAN 2200 63 80/ 5/ 6 1024.1F CAPERS NEARSHORE 2108 65 90/ 4/ 6 1024.1F FRIPP NEARSHORE 2208 63 61 90/ 6/ 8 1022.7F STATION/POSITION TIME TEMP WIND PRES WAVE SWELL AIR SEA DIR/SP/G HT/PER HT/PER/DIR (UTC) (F) (DEG/KT/KT) (MB) (FT/S) (FT/S/D) 5E ST. MARYS GA 2200 65 N/A 4/ 9 FRYING PAN BUOY 2210 70 74 190/ 10/ 14 1024.5 BUOY 41025 2150 70 77 230/ 16/ 17 1024.9F 3/ 5 2/150/ 8 CAPE LOOKOUT NC 2200 68 240/ 5/ 7 1024.9F BUOY 41002 2150 66 73 90/ 8/ 12 1025.6F 4/ 7 5/130/ 7 BUOY 41010 NOT AVBL ST AUGUSTINE FL 2200 67 69 100/ 9/ 9 1022.5F $$

USA.gov is the U.S. government's official web portal to all federal, state and local government web resources and services.